When you browse on this site, cookies collect data to enhance your experience and personalize the content and advertising you see.
Visit our Privacy Policy to learn more. By continuing to use the site, you agree to this use of cookies and data.
  • en Suisse
  • Liste des pays
  • À 7 jours
  • Température de l'eau
  • Carte météo
  • Widgets météo
  • user-avatar
    Se connecter

    Météo par heure à Sidi-bel-Abbès

    Ce jour, 21 Novembre, Jeudi

    Heure Température Précipitation Vent Pression Humidité
    00:00 +12°C° 0 mm 2 m/s 716 mmHg 72%
    01:00 +11°C° 0 mm 3 m/s 716 mmHg 70%
    02:00 +11°C° 0 mm 3 m/s 716 mmHg 69%
    03:00 +11°C° 0 mm 3 m/s 716 mmHg 67%
    04:00 +11°C° 0 mm 3 m/s 716 mmHg 68%
    05:00 +11°C° 0 mm 3 m/s 716 mmHg 70%
    06:00 +12°C° 0 mm 2 m/s 716 mmHg 70%
    07:00 +12°C° 0 mm 2 m/s 717 mmHg 67%
    08:00 +13°C° 0 mm 2 m/s 717 mmHg 64%
    09:00 +14°C° 0 mm 2 m/s 717 mmHg 60%
    10:00 +14°C° 0 mm 3 m/s 717 mmHg 58%
    11:00 +15°C° 0 mm 4 m/s 717 mmHg 56%
    12:00 +16°C° 0 mm 5 m/s 717 mmHg 53%
    13:00 +17°C° 0 mm 5 m/s 717 mmHg 51%
    14:00 +18°C° 0 mm 4 m/s 716 mmHg 50%
    15:00 +18°C° 0 mm 4 m/s 716 mmHg 48%
    16:00 +17°C° 0 mm 3 m/s 716 mmHg 55%
    17:00 +16°C° 0 mm 2 m/s 716 mmHg 61%
    18:00 +14°C° 0 mm 1 m/s 715 mmHg 68%
    19:00 +14°C° 0 mm 1 m/s 716 mmHg 67%
    20:00 +14°C° 0 mm 2 m/s 716 mmHg 66%
    21:00 +14°C° 0 mm 2 m/s 716 mmHg 64%
    22:00 +14°C° 0 mm 2 m/s 716 mmHg 64%
    23:00 +14°C° 0 mm 2 m/s 716 mmHg 64%

    Demain, 22 Novembre, Vendredi

    Heure Température Précipitation Vent Pression Humidité
    00:00 +14°C° 0 mm 2 m/s 716 mmHg 64%
    01:00 +14°C° 0 mm 2 m/s 715 mmHg 65%
    02:00 +13°C° 0 mm 2 m/s 715 mmHg 66%
    03:00 +13°C° 0 mm 2 m/s 715 mmHg 67%
    04:00 +13°C° 0 mm 2 m/s 715 mmHg 67%
    05:00 +12°C° 0 mm 3 m/s 715 mmHg 67%
    06:00 +12°C° 0 mm 3 m/s 715 mmHg 67%
    07:00 +13°C° 0 mm 3 m/s 715 mmHg 63%
    08:00 +14°C° 0 mm 3 m/s 715 mmHg 59%
    09:00 +16°C° 0 mm 3 m/s 715 mmHg 55%
    10:00 +17°C° 0 mm 4 m/s 715 mmHg 51%
    11:00 +19°C° 0 mm 6 m/s 714 mmHg 47%
    12:00 +20°C° 0 mm 7 m/s 714 mmHg 42%
    13:00 +19°C° 0.5 mm 6 m/s 713 mmHg 54%
    14:00 +16°C° 0.5 mm 5 m/s 713 mmHg 65%
    15:00 +14°C° 0.5 mm 5 m/s 712 mmHg 76%
    16:00 +15°C° 0.3 mm 5 m/s 712 mmHg 73%
    17:00 +16°C° 0.3 mm 6 m/s 712 mmHg 70%
    18:00 +16°C° 0.3 mm 6 m/s 712 mmHg 66%
    19:00 +16°C° 0 mm 7 m/s 712 mmHg 66%
    20:00 +16°C° 0 mm 8 m/s 712 mmHg 65%
    21:00 +16°C° 0 mm 8 m/s 712 mmHg 65%
    22:00 +16°C° 0 mm 8 m/s 711 mmHg 63%
    23:00 +16°C° 0 mm 9 m/s 711 mmHg 61%

    Après-demain, 23 Novembre, Samedi

    Heure Température Précipitation Vent Pression Humidité
    00:00 +16°C° 0 mm 9 m/s 710 mmHg 59%
    01:00 +16°C° 0 mm 9 m/s 710 mmHg 64%
    02:00 +15°C° 0 mm 9 m/s 710 mmHg 69%
    03:00 +15°C° 0 mm 9 m/s 710 mmHg 74%
    04:00 +13°C° 0.1 mm 10 m/s 710 mmHg 78%
    05:00 +12°C° 0.1 mm 11 m/s 710 mmHg 81%
    06:00 +12°C° 0.1 mm 12 m/s 710 mmHg 84%
    07:00 +12°C° 0.1 mm 13 m/s 711 mmHg 82%
    08:00 +12°C° 0.1 mm 13 m/s 712 mmHg 79%
    09:00 +12°C° 0.1 mm 14 m/s 712 mmHg 77%
    10:00 +12°C° 0.3 mm 14 m/s 712 mmHg 75%
    11:00 +10°C° 0.3 mm 15 m/s 713 mmHg 73%
    12:00 +10°C° 0.3 mm 15 m/s 713 mmHg 70%
    13:00 +10°C° 0.1 mm 15 m/s 713 mmHg 69%
    14:00 +10°C° 0.1 mm 14 m/s 713 mmHg 67%
    15:00 +12°C° 0.1 mm 14 m/s 714 mmHg 65%
    16:00 +10°C° 0.1 mm 13 m/s 714 mmHg 68%
    17:00 +11°C° 0.1 mm 11 m/s 714 mmHg 71%
    18:00 +9°C° 0.1 mm 10 m/s 715 mmHg 74%
    19:00 +10°C° 0.1 mm 9 m/s 715 mmHg 75%
    20:00 +10°C° 0.1 mm 9 m/s 716 mmHg 77%
    21:00 +10°C° 0.1 mm 9 m/s 717 mmHg 78%
    22:00 +9°C° 0.1 mm 8 m/s 717 mmHg 79%
    23:00 +9°C° 0.1 mm 7 m/s 717 mmHg 80%

    24 Novembre, Dimanche

    Heure Température Précipitation Vent Pression Humidité
    00:00 +9°C° 0.1 mm 7 m/s 718 mmHg 81%
    01:00 +9°C° 0 mm 7 m/s 718 mmHg 82%
    02:00 +8°C° 0 mm 6 m/s 718 mmHg 83%
    03:00 +8°C° 0 mm 6 m/s 718 mmHg 84%
    04:00 +8°C° 0 mm 6 m/s 718 mmHg 84%
    05:00 +8°C° 0 mm 5 m/s 719 mmHg 84%
    06:00 +8°C° 0 mm 5 m/s 719 mmHg 84%
    07:00 +9°C° 0 mm 5 m/s 719 mmHg 80%
    08:00 +9°C° 0 mm 6 m/s 720 mmHg 76%
    09:00 +10°C° 0 mm 6 m/s 721 mmHg 72%
    10:00 +11°C° 0 mm 7 m/s 721 mmHg 69%
    11:00 +12°C° 0 mm 7 m/s 721 mmHg 65%
    12:00 +13°C° 0 mm 8 m/s 721 mmHg 62%
    13:00 +13°C° 0 mm 8 m/s 721 mmHg 62%
    14:00 +12°C° 0 mm 8 m/s 721 mmHg 62%
    15:00 +12°C° 0 mm 8 m/s 720 mmHg 62%
    16:00 +11°C° 0 mm 7 m/s 720 mmHg 66%
    17:00 +11°C° 0 mm 6 m/s 721 mmHg 71%
    18:00 +11°C° 0 mm 4 m/s 721 mmHg 75%
    19:00 +10°C° 0 mm 4 m/s 721 mmHg 77%
    20:00 +10°C° 0 mm 3 m/s 721 mmHg 78%
    21:00 +10°C° 0 mm 3 m/s 722 mmHg 79%
    22:00 +9°C° 0 mm 3 m/s 722 mmHg 78%
    23:00 +9°C° 0 mm 2 m/s 722 mmHg 78%

    25 Novembre, Lundi

    Heure Température Précipitation Vent Pression Humidité
    00:00 +9°C° 0 mm 2 m/s 722 mmHg 77%
    01:00 +9°C° 0 mm 2 m/s 722 mmHg 76%
    02:00 +9°C° 0 mm 2 m/s 722 mmHg 75%
    03:00 +9°C° 0 mm 2 m/s 722 mmHg 74%
    04:00 +8°C° 0 mm 2 m/s 722 mmHg 74%
    05:00 +9°C° 0 mm 1 m/s 721 mmHg 74%
    06:00 +9°C° 0 mm 1 m/s 721 mmHg 73%
    07:00 +10°C° 0 mm 1 m/s 722 mmHg 68%
    08:00 +12°C° 0 mm 1 m/s 722 mmHg 62%
    09:00 +13°C° 0 mm 1 m/s 723 mmHg 57%
    10:00 +14°C° 0 mm 2 m/s 723 mmHg 53%
    11:00 +15°C° 0 mm 2 m/s 723 mmHg 50%
    12:00 +16°C° 0 mm 2 m/s 723 mmHg 46%
    13:00 +16°C° 0 mm 2 m/s 723 mmHg 46%
    14:00 +17°C° 0 mm 2 m/s 722 mmHg 45%
    15:00 +17°C° 0 mm 2 m/s 722 mmHg 45%
    16:00 +16°C° 0 mm 2 m/s 722 mmHg 53%
    17:00 +14°C° 0 mm 1 m/s 722 mmHg 61%
    18:00 +13°C° 0 mm 1 m/s 722 mmHg 69%
    19:00 +13°C° 0 mm 1 m/s 722 mmHg 68%
    20:00 +13°C° 0 mm 1 m/s 723 mmHg 68%
    21:00 +12°C° 0 mm 1 m/s 723 mmHg 68%
    22:00 +12°C° 0 mm 1 m/s 723 mmHg 66%
    23:00 +12°C° 0 mm 1 m/s 723 mmHg 65%

    26 Novembre, Mardi

    Heure Température Précipitation Vent Pression Humidité
    00:00 +12°C° 0 mm 1 m/s 722 mmHg 64%
    01:00 +12°C° 0 mm 1 m/s 722 mmHg 62%
    02:00 +12°C° 0 mm 1 m/s 722 mmHg 61%
    03:00 +12°C° 0 mm 1 m/s 722 mmHg 59%
    04:00 +12°C° 0 mm 1 m/s 722 mmHg 59%
    05:00 +11°C° 0 mm 1 m/s 722 mmHg 59%
    06:00 +11°C° 0 mm 1 m/s 722 mmHg 59%
    07:00 +13°C° 0 mm 1 m/s 722 mmHg 54%
    08:00 +15°C° 0 mm 1 m/s 723 mmHg 50%
    09:00 +17°C° 0 mm 2 m/s 723 mmHg 46%
    10:00 +18°C° 0 mm 2 m/s 723 mmHg 44%
    11:00 +21°C° 0 mm 1 m/s 723 mmHg 41%
    12:00 +22°C° 0 mm 1 m/s 723 mmHg 39%
    13:00 +22°C° 0 mm 1 m/s 723 mmHg 39%
    14:00 +23°C° 0 mm 1 m/s 722 mmHg 38%
    15:00 +23°C° 0 mm 1 m/s 722 mmHg 38%
    16:00 +21°C° 0 mm 1 m/s 722 mmHg 43%
    17:00 +19°C° 0 mm 2 m/s 722 mmHg 49%
    18:00 +17°C° 0 mm 2 m/s 722 mmHg 54%
    19:00 +17°C° 0 mm 2 m/s 722 mmHg 54%
    20:00 +17°C° 0 mm 2 m/s 722 mmHg 54%
    21:00 +17°C° 0 mm 2 m/s 722 mmHg 53%
    22:00 +16°C° 0 mm 3 m/s 722 mmHg 53%
    23:00 +16°C° 0 mm 3 m/s 722 mmHg 53%
    Voir plus